This is the latest recevied weather packets stored in our database for station/object IZ6UQU-13. If no packets are shown the sender has not sent any weather packets the latest 10 day(s).
| Time | Temp. | Humidity | Pressure | Rain* | Wind** | Luminosity | Snow |
|---|---|---|---|---|---|---|---|
| 1777876809 | 12.78° C | 80% | 960.3 hPa | 0 mm | - | - | - |
| 1777876509 | 12.22° C | 82% | 960.2 hPa | 0 mm | - | - | - |
| 1777876209 | 11.67° C | 84% | 960.3 hPa | 0 mm | - | - | - |
| 1777875908 | 11.11° C | 84% | 960.3 hPa | 0 mm | - | - | - |
| 1777875609 | 11.11° C | 86% | 960.2 hPa | 0 mm | - | - | - |
| 1777875308 | 11.11° C | 85% | 960.3 hPa | 0 mm | - | - | - |
| 1777875009 | 10.56° C | 87% | 960.3 hPa | 0 mm | - | - | - |
| 1777874708 | 10.56° C | 87% | 960.2 hPa | 0 mm | - | - | - |
| 1777874408 | 10.56° C | 88% | 960.2 hPa | 0 mm | - | - | - |
| 1777874108 | 10.56° C | 87% | 960.2 hPa | 0 mm | - | - | - |
| 1777873809 | 11.11° C | 85% | 960.1 hPa | 0 mm | - | - | - |
| 1777873508 | 11.11° C | 87% | 960.1 hPa | 0 mm | - | - | - |
| 1777873209 | 10.56° C | 88% | 960 hPa | 0 mm | - | - | - |
| 1777872908 | 10° C | 90% | 960 hPa | 0 mm | - | - | - |
| 1777872608 | 8.89° C | 90% | 960.1 hPa | 0 mm | - | - | - |
| 1777872308 | 8.89° C | 90% | 960.1 hPa | 0 mm | - | - | - |
| 1777872008 | 8.33° C | 91% | 960.1 hPa | 0 mm | - | - | - |
| 1777871708 | 8.33° C | 94% | 960.1 hPa | 0 mm | - | - | - |
| 1777871408 | 7.22° C | 94% | 960.2 hPa | 0 mm | - | - | - |
| 1777871108 | 7.22° C | 94% | 960.1 hPa | 0 mm | - | - | - |
| 1777870808 | 7.22° C | 93% | 960.1 hPa | 0 mm | - | - | - |
| 1777870508 | 7.22° C | 93% | 960 hPa | 0 mm | - | - | - |
| 1777870208 | 7.22° C | 92% | 960 hPa | 0 mm | - | - | - |
| 1777869908 | 7.78° C | 94% | 960 hPa | 0 mm | - | - | - |
| 1777869608 | 7.22° C | 94% | 960 hPa | 0 mm | - | - | - |
* Rain latest hour (hover to see other rain measurements)
** Current wind speed in m/s (hover to see current wind gust speed)